This demonstration page uses our WeatherBlox Daily Observations layout. Learn more.

Left ArrowRight Arrow

41.12389, -100.76542

Hourly Observations for March 17, 2021

Temp ( °F °C ) Dew Point ( °F °C ) Humidity (%) Winds ( mph kmh ) Pressure ( in mb ) Visibility ( mi km ) Precip ( " mm )
12:53 am 00:53 Clear 30 -1.1 24 -4.4 79 79 Calm 30.02 1017 10 16 0.00 0.00
1:53 am 01:53 Clear 29 -1.7 24 -4.4 82 82 NW 6 9 30.00 1016 10 16 0.00 0.00
2:22 am 02:22 Mostly Cloudy 29 -1.7 24 -4.4 82 82 Calm 30.10 1019 10 16 0.00 0.00
2:53 am 02:53 Mostly Cloudy 29 -1.7 23 -5 78 78 Calm 30.03 1017 10 16 0.00 0.00
3:03 am 03:03 Partly Cloudy 27 -2.8 22 -5.6 81 81 SE 5 7 30.13 1020 10 16 0.00 0.00
3:53 am 03:53 Clear 27 -2.8 23 -5 85 85 NW 6 9 30.03 1017 10 16 0.00 0.00
4:53 am 04:53 Partly Cloudy 27 -2.8 22 -5.6 81 81 NW 7 11 30.03 1017 10 16 0.00 0.00
5:02 am 05:02 Mostly Cloudy 28 -2.2 24 -4.4 85 85 NW 6 9 30.10 1019 10 16 0.00 0.00
5:53 am 05:53 Cloudy 29 -1.7 25 -3.9 85 85 WNW 6 9 30.04 1017 10 16 0.00 0.00
6:53 am 06:53 Cloudy 32 0 25 -3.9 75 75 NNW 8 13 30.00 1016 10 16 0.00 0.00
7:53 am 07:53 Cloudy 33 0.6 28 -2.2 82 82 NW 3 6 30.03 1017 10 16 0.00 0.00
8:53 am 08:53 Cloudy 35 1.7 29 -1.7 78 78 NW 6 9 30.08 1019 10 16 0.00 0.00
9:53 am 09:53 Cloudy 36 2.2 29 -1.7 76 76 NNW 15 24 30.08 1019 10 16 0.00 0.00
10:53 am 10:53 Cloudy 39 3.9 30 -1.1 70 70 N 16 26 30.07 1018 10 16 0.00 0.00
11:01 am 11:01 Mostly Cloudy 39 3.9 29 -1.7 67 67 N 17 28 30.09 1019 10 16 0.00 0.00
11:36 am 11:36 Mostly Cloudy 41 5 28 -2.2 60 60 NNW 22 35 30.09 1019 10 16 0.00 0.00
11:53 am 11:53 Mostly Cloudy 42 5.6 28 -2.2 58 58 N 22 35 30.07 1018 10 16 0.00 0.00
12:53 pm 12:53 Cloudy 42 5.6 27 -2.8 55 55 N 24 39 30.09 1019 10 16 0.00 0.00
1:53 pm 13:53 Cloudy 43 6.1 27 -2.8 53 53 N 21 33 30.11 1020 10 16 0.00 0.00
2:53 pm 14:53 Cloudy 42 5.6 30 -1.1 62 62 N 22 35 30.11 1020 10 16 0.00 0.00
3:53 pm 15:53 Cloudy 42 5.6 29 -1.7 60 60 NNW 21 33 30.11 1020 10 16 0.00 0.00
4:53 pm 16:53 Cloudy 41 5 30 -1.1 65 65 NNW 18 30 30.14 1021 10 16 0.00 0.00
5:53 pm 17:53 Cloudy 39 3.9 30 -1.1 70 70 N 14 22 30.14 1021 10 16 0.00 0.00
6:08 pm 18:08 Cloudy 41 5 28 -2.2 60 60 N 22 35 30.13 1020 10 16 0.00 0.00
6:53 pm 18:53 Cloudy 40 4.4 28 -2.2 63 63 N 18 30 30.14 1021 10 16 0.00 0.00
7:13 pm 19:13 Cloudy 38 3.3 29 -1.7 70 70 N 17 28 30.17 1022 10 16 0.00 0.00
7:53 pm 19:53 Cloudy 37 2.8 29 -1.7 73 73 N 16 26 30.18 1022 10 16 0.00 0.00
8:53 pm 20:53 Cloudy 37 2.8 29 -1.7 73 73 N 15 24 30.20 1023 10 16 0.00 0.00
9:53 pm 21:53 Cloudy 36 2.2 29 -1.7 76 76 NNW 15 24 30.21 1023 10 16 0.00 0.00
10:53 pm 22:53 Cloudy 35 1.7 30 -1.1 82 82 N 14 22 30.22 1023 10 16 0.00 0.00
11:53 pm 23:53 Cloudy 36 2.2 30 -1.1 79 79 N 9 15 30.22 1023 10 16 0.00 0.00

Powered by AerisWeather